Year,Month,Day,Hour,Minute,Value (Times are PST for temperature in C)
2020,04,13,00,00,6.80
2020,04,13,00,01,6.70
2020,04,13,00,02,6.70
2020,04,13,00,03,6.70
2020,04,13,00,04,6.70
2020,04,13,00,05,6.60
2020,04,13,00,06,6.60
2020,04,13,00,07,6.60
2020,04,13,00,08,6.60
2020,04,13,00,09,6.50
2020,04,13,00,10,6.50
2020,04,13,00,11,6.40
2020,04,13,00,12,6.40
2020,04,13,00,13,6.40
2020,04,13,00,14,6.40
2020,04,13,00,15,6.40
2020,04,13,00,16,6.30
2020,04,13,00,17,6.30
2020,04,13,00,18,6.30
2020,04,13,00,19,6.30
2020,04,13,00,20,6.30
2020,04,13,00,21,6.30
2020,04,13,00,22,6.30
2020,04,13,00,23,6.30
2020,04,13,00,24,6.40
2020,04,13,00,25,6.40
2020,04,13,00,26,6.40
2020,04,13,00,27,6.50
2020,04,13,00,28,6.60
2020,04,13,00,29,6.70
2020,04,13,00,30,6.70
2020,04,13,00,31,6.80
2020,04,13,00,32,6.80
2020,04,13,00,33,6.80
2020,04,13,00,34,6.80
2020,04,13,00,35,6.90
2020,04,13,00,36,6.90
2020,04,13,00,37,6.90
2020,04,13,00,38,6.90
2020,04,13,00,39,6.90
2020,04,13,00,40,6.90
2020,04,13,00,41,6.90
2020,04,13,00,42,6.90
2020,04,13,00,43,6.90
2020,04,13,00,44,6.90
2020,04,13,00,45,6.90
2020,04,13,00,46,6.90
2020,04,13,00,47,6.90
2020,04,13,00,48,6.90
2020,04,13,00,49,6.90
2020,04,13,00,50,6.90
2020,04,13,00,51,6.90
2020,04,13,00,52,6.90
2020,04,13,00,53,6.90
2020,04,13,00,54,6.90
2020,04,13,00,55,6.90
2020,04,13,00,56,6.90
2020,04,13,00,57,6.90
2020,04,13,00,58,6.90
2020,04,13,00,59,6.90
2020,04,13,01,00,6.80
2020,04,13,01,01,6.90
2020,04,13,01,02,6.90
2020,04,13,01,03,6.90
2020,04,13,01,04,6.90
2020,04,13,01,05,6.90
2020,04,13,01,06,6.90
2020,04,13,01,07,6.90
2020,04,13,01,08,6.90
2020,04,13,01,09,6.90
2020,04,13,01,10,7.00
2020,04,13,01,11,6.90
2020,04,13,01,12,6.90
2020,04,13,01,13,6.90
2020,04,13,01,14,6.90
2020,04,13,01,15,6.90
2020,04,13,01,16,6.90
2020,04,13,01,17,6.90
2020,04,13,01,18,6.90
2020,04,13,01,19,6.90
2020,04,13,01,20,6.90
2020,04,13,01,21,6.90
2020,04,13,01,22,6.90
2020,04,13,01,23,6.90
2020,04,13,01,24,6.80
2020,04,13,01,25,6.80
2020,04,13,01,26,6.80
2020,04,13,01,27,6.80
2020,04,13,01,28,6.80
2020,04,13,01,29,6.80
2020,04,13,01,30,6.80
2020,04,13,01,31,6.80
2020,04,13,01,32,6.80
2020,04,13,01,33,6.80
2020,04,13,01,34,6.80
2020,04,13,01,35,6.80
2020,04,13,01,36,6.80
2020,04,13,01,37,6.80
2020,04,13,01,38,6.80
2020,04,13,01,39,6.80
2020,04,13,01,40,6.80
2020,04,13,01,41,6.80
2020,04,13,01,42,6.80
2020,04,13,01,43,6.80
2020,04,13,01,44,6.80
2020,04,13,01,45,6.80
2020,04,13,01,46,6.70
2020,04,13,01,47,6.70
2020,04,13,01,48,6.70
2020,04,13,01,49,6.70
2020,04,13,01,50,6.70
2020,04,13,01,51,6.70
2020,04,13,01,52,6.70
2020,04,13,01,53,6.70
2020,04,13,01,54,6.60
2020,04,13,01,55,6.60
2020,04,13,01,56,6.60
2020,04,13,01,57,6.60
2020,04,13,01,58,6.50
2020,04,13,01,59,6.50
2020,04,13,02,00,6.50
2020,04,13,02,01,6.50
2020,04,13,02,02,6.40
2020,04,13,02,03,6.40
2020,04,13,02,04,6.40
2020,04,13,02,05,6.40
2020,04,13,02,06,6.30
2020,04,13,02,07,6.30
2020,04,13,02,08,6.30
2020,04,13,02,09,6.20
2020,04,13,02,10,6.20
2020,04,13,02,11,6.10
2020,04,13,02,12,6.10
2020,04,13,02,13,6.00
2020,04,13,02,14,6.00
2020,04,13,02,15,6.00
2020,04,13,02,16,5.90
2020,04,13,02,17,5.90
2020,04,13,02,18,5.90
2020,04,13,02,19,5.80
2020,04,13,02,20,5.80
2020,04,13,02,21,5.80
2020,04,13,02,22,5.80
2020,04,13,02,23,5.70
2020,04,13,02,24,5.70
2020,04,13,02,25,5.70
2020,04,13,02,26,5.70
2020,04,13,02,27,5.60
2020,04,13,02,28,5.60
2020,04,13,02,29,5.60
2020,04,13,02,30,5.60
2020,04,13,02,31,5.50
2020,04,13,02,32,5.50
2020,04,13,02,33,5.50
2020,04,13,02,34,5.40
2020,04,13,02,35,5.40
2020,04,13,02,36,5.40
2020,04,13,02,37,5.30
2020,04,13,02,38,5.30
2020,04,13,02,39,5.30
2020,04,13,02,40,5.20
2020,04,13,02,41,5.20
2020,04,13,02,42,5.10
2020,04,13,02,43,5.10
2020,04,13,02,44,5.10
2020,04,13,02,45,5.00
2020,04,13,02,46,5.00
2020,04,13,02,47,5.00
2020,04,13,02,48,4.90
2020,04,13,02,49,4.90
2020,04,13,02,50,4.90
2020,04,13,02,51,4.90
2020,04,13,02,52,4.90
2020,04,13,02,53,4.90
2020,04,13,02,54,4.90
2020,04,13,02,55,4.80
2020,04,13,02,56,4.80
2020,04,13,02,57,4.80
2020,04,13,02,58,4.80
2020,04,13,02,59,4.80
2020,04,13,03,00,4.80
2020,04,13,03,01,4.80
2020,04,13,03,02,4.80
2020,04,13,03,03,4.80
2020,04,13,03,04,4.80
2020,04,13,03,05,4.80
2020,04,13,03,06,4.80
2020,04,13,03,07,4.80
2020,04,13,03,08,4.70
2020,04,13,03,09,4.70
2020,04,13,03,10,4.70
2020,04,13,03,11,4.70
2020,04,13,03,12,4.70
2020,04,13,03,13,4.70
2020,04,13,03,14,4.70
2020,04,13,03,15,4.70
2020,04,13,03,16,4.60
2020,04,13,03,17,4.60
2020,04,13,03,18,4.60
2020,04,13,03,19,4.60
2020,04,13,03,20,4.60
2020,04,13,03,21,4.50
2020,04,13,03,22,4.40
2020,04,13,03,23,4.40
2020,04,13,03,24,4.40
2020,04,13,03,25,4.40
2020,04,13,03,26,4.30
2020,04,13,03,27,4.30
2020,04,13,03,28,4.30
2020,04,13,03,29,4.30
2020,04,13,03,30,4.30
2020,04,13,03,31,4.20
2020,04,13,03,32,4.20
2020,04,13,03,33,4.20
2020,04,13,03,34,4.20
2020,04,13,03,35,4.10
2020,04,13,03,36,4.10
2020,04,13,03,37,4.10
2020,04,13,03,38,4.00
2020,04,13,03,39,4.00
2020,04,13,03,40,3.90
2020,04,13,03,41,3.90
2020,04,13,03,42,3.90
2020,04,13,03,43,3.80
2020,04,13,03,44,3.80
2020,04,13,03,45,3.80
2020,04,13,03,46,3.80
2020,04,13,03,47,3.70
2020,04,13,03,48,3.70
2020,04,13,03,49,3.70
2020,04,13,03,50,3.70
2020,04,13,03,51,3.70
2020,04,13,03,52,3.60
2020,04,13,03,53,3.60
2020,04,13,03,54,3.60
2020,04,13,03,55,3.60
2020,04,13,03,56,3.60
2020,04,13,03,57,3.50
2020,04,13,03,58,3.50
2020,04,13,03,59,3.50
2020,04,13,04,00,3.50
2020,04,13,04,01,3.40
2020,04,13,04,02,3.40
2020,04,13,04,03,3.40
2020,04,13,04,04,3.40
2020,04,13,04,05,3.40
2020,04,13,04,06,3.40
2020,04,13,04,07,3.30
2020,04,13,04,08,3.30
2020,04,13,04,09,3.30
2020,04,13,04,10,3.30
2020,04,13,04,11,3.30
2020,04,13,04,12,3.30
2020,04,13,04,13,3.30
2020,04,13,04,14,3.30
2020,04,13,04,15,3.30
2020,04,13,04,16,3.30
2020,04,13,04,17,3.20
2020,04,13,04,18,3.20
2020,04,13,04,19,3.20
2020,04,13,04,20,3.20
2020,04,13,04,21,3.20
2020,04,13,04,22,3.20
2020,04,13,04,23,3.20
2020,04,13,04,24,3.20
2020,04,13,04,25,3.20
2020,04,13,04,26,3.20
2020,04,13,04,27,3.20
2020,04,13,04,28,3.20
2020,04,13,04,29,3.20
2020,04,13,04,30,3.20
2020,04,13,04,31,3.20
2020,04,13,04,32,3.20
2020,04,13,04,33,3.20
2020,04,13,04,34,3.20
2020,04,13,04,35,3.20
2020,04,13,04,36,3.20
2020,04,13,04,37,3.20
2020,04,13,04,38,3.20
2020,04,13,04,39,3.20
2020,04,13,04,40,3.20
2020,04,13,04,41,3.20
2020,04,13,04,42,3.20
2020,04,13,04,43,3.20
2020,04,13,04,44,3.20
2020,04,13,04,45,3.20
2020,04,13,04,46,3.20
2020,04,13,04,47,3.20
2020,04,13,04,48,3.20
2020,04,13,04,49,3.20
2020,04,13,04,50,3.20
2020,04,13,04,51,3.20
2020,04,13,04,52,3.20
2020,04,13,04,53,3.20
2020,04,13,04,54,3.20
2020,04,13,04,55,3.20
2020,04,13,04,56,3.20
2020,04,13,04,57,3.20
2020,04,13,04,58,3.20
2020,04,13,04,59,3.20
2020,04,13,05,00,3.20
2020,04,13,05,01,3.30
2020,04,13,05,02,3.30
2020,04,13,05,03,3.30
2020,04,13,05,04,3.30
2020,04,13,05,05,3.30
2020,04,13,05,06,3.30
2020,04,13,05,07,3.30
2020,04,13,05,08,3.30
2020,04,13,05,09,3.30
2020,04,13,05,10,3.30
2020,04,13,05,11,3.40
2020,04,13,05,12,3.40
2020,04,13,05,13,3.40
2020,04,13,05,14,3.40
2020,04,13,05,15,3.40
2020,04,13,05,16,3.40
2020,04,13,05,17,3.40
2020,04,13,05,18,3.50
2020,04,13,05,19,3.50
2020,04,13,05,20,3.50
2020,04,13,05,21,3.60
2020,04,13,05,22,3.60
2020,04,13,05,23,3.60
2020,04,13,05,24,3.60
2020,04,13,05,25,3.60
2020,04,13,05,26,3.60
2020,04,13,05,27,3.60
2020,04,13,05,28,3.60
2020,04,13,05,29,3.60
2020,04,13,05,30,3.60
2020,04,13,05,31,3.60
2020,04,13,05,32,3.60
2020,04,13,05,33,3.60
2020,04,13,05,34,3.50
2020,04,13,05,35,3.50
2020,04,13,05,36,3.50
2020,04,13,05,37,3.50
2020,04,13,05,38,3.50
2020,04,13,05,39,3.50
2020,04,13,05,40,3.50
2020,04,13,05,41,3.40
2020,04,13,05,42,3.40
2020,04,13,05,43,3.40
2020,04,13,05,44,3.40
2020,04,13,05,45,3.40
2020,04,13,05,46,3.40
2020,04,13,05,47,3.40
2020,04,13,05,48,3.40
2020,04,13,05,49,3.40
2020,04,13,05,50,3.40
2020,04,13,05,51,3.40
2020,04,13,05,52,3.40
2020,04,13,05,53,3.40
2020,04,13,05,54,3.40
2020,04,13,05,55,3.40
2020,04,13,05,56,3.40
2020,04,13,05,57,3.40
2020,04,13,05,58,3.40
2020,04,13,05,59,3.40
2020,04,13,06,00,3.40
2020,04,13,06,01,3.40
2020,04,13,06,02,3.30
2020,04,13,06,03,3.30
2020,04,13,06,04,3.30
2020,04,13,06,05,3.30
2020,04,13,06,06,3.30
2020,04,13,06,07,3.30
2020,04,13,06,08,3.20
2020,04,13,06,09,3.20
2020,04,13,06,10,3.20
2020,04,13,06,11,3.20
2020,04,13,06,12,3.10
2020,04,13,06,13,3.10
2020,04,13,06,14,3.10
2020,04,13,06,15,3.10
2020,04,13,06,16,3.00
2020,04,13,06,17,3.00
2020,04,13,06,18,3.00
2020,04,13,06,19,2.90
2020,04,13,06,20,2.90
2020,04,13,06,21,2.90
2020,04,13,06,22,2.90
2020,04,13,06,23,2.80
2020,04,13,06,24,2.80
2020,04,13,06,25,2.80
2020,04,13,06,26,2.80
2020,04,13,06,27,2.80
2020,04,13,06,28,2.70
2020,04,13,06,29,2.70
2020,04,13,06,30,2.70
2020,04,13,06,31,2.70
2020,04,13,06,32,2.70
2020,04,13,06,33,2.70
2020,04,13,06,34,2.70
2020,04,13,06,35,2.70
2020,04,13,06,36,2.60
2020,04,13,06,37,2.60
2020,04,13,06,38,2.60
2020,04,13,06,39,2.60
2020,04,13,06,40,2.60
2020,04,13,06,41,2.60
2020,04,13,06,42,2.50
2020,04,13,06,43,2.50
2020,04,13,06,44,2.50
2020,04,13,06,45,2.50
2020,04,13,06,46,2.40
2020,04,13,06,47,2.40
2020,04,13,06,48,2.40
2020,04,13,06,49,2.40
2020,04,13,06,50,2.40
2020,04,13,06,51,2.40
2020,04,13,06,52,2.30
2020,04,13,06,53,2.30
2020,04,13,06,54,2.30
2020,04,13,06,55,2.30
2020,04,13,06,56,2.30
2020,04,13,06,57,2.30
2020,04,13,06,58,2.30
2020,04,13,06,59,2.30
2020,04,13,07,00,2.30
2020,04,13,07,01,2.30
2020,04,13,07,02,2.30
2020,04,13,07,03,2.30
2020,04,13,07,04,2.30
2020,04,13,07,05,2.30
2020,04,13,07,06,2.30
2020,04,13,07,07,2.30
2020,04,13,07,08,2.30
2020,04,13,07,09,2.30
2020,04,13,07,10,2.30
2020,04,13,07,11,2.40
2020,04,13,07,12,2.40
2020,04,13,07,13,2.40
2020,04,13,07,14,2.40
2020,04,13,07,15,2.50
2020,04,13,07,16,2.50
2020,04,13,07,17,2.50
2020,04,13,07,18,2.60
2020,04,13,07,19,2.60
2020,04,13,07,20,2.70
2020,04,13,07,21,2.70
2020,04,13,07,22,2.70
2020,04,13,07,23,2.80
2020,04,13,07,24,2.80
2020,04,13,07,25,2.80
2020,04,13,07,26,2.90
2020,04,13,07,27,3.00
2020,04,13,07,28,3.00
2020,04,13,07,29,3.10
2020,04,13,07,30,3.10
2020,04,13,07,31,3.10
2020,04,13,07,32,3.20
2020,04,13,07,33,3.20
2020,04,13,07,34,3.30
2020,04,13,07,35,3.40
2020,04,13,07,36,3.50
2020,04,13,07,37,3.50
2020,04,13,07,38,3.60
2020,04,13,07,39,3.70
2020,04,13,07,40,3.80
2020,04,13,07,41,3.90
2020,04,13,07,42,4.00
2020,04,13,07,43,4.00
2020,04,13,07,44,4.10
2020,04,13,07,45,4.20
2020,04,13,07,46,4.30
2020,04,13,07,47,4.30
2020,04,13,07,48,4.40
2020,04,13,07,49,4.50
2020,04,13,07,50,4.60
2020,04,13,07,51,4.70
2020,04,13,07,52,4.80
2020,04,13,07,53,4.90
2020,04,13,07,54,5.00
2020,04,13,07,55,5.10
2020,04,13,07,56,5.30
2020,04,13,07,57,5.30
2020,04,13,07,58,5.50
2020,04,13,07,59,5.60
2020,04,13,08,00,5.70
2020,04,13,08,01,5.80
2020,04,13,08,02,5.90
2020,04,13,08,03,6.00
2020,04,13,08,04,6.10
2020,04,13,08,05,6.20
2020,04,13,08,06,6.20
2020,04,13,08,07,6.30
2020,04,13,08,08,6.40
2020,04,13,08,09,6.50
2020,04,13,08,10,6.50
2020,04,13,08,11,6.60
2020,04,13,08,12,6.70
2020,04,13,08,13,6.70
2020,04,13,08,14,6.80
2020,04,13,08,15,6.80
2020,04,13,08,16,6.80
2020,04,13,08,17,6.90
2020,04,13,08,18,6.90
2020,04,13,08,19,7.00
2020,04,13,08,20,7.00
2020,04,13,08,21,7.10
2020,04,13,08,22,7.20
2020,04,13,08,23,7.30
2020,04,13,08,24,7.40
2020,04,13,08,25,7.50
2020,04,13,08,26,7.60
2020,04,13,08,27,7.70
2020,04,13,08,28,7.80
2020,04,13,08,29,7.80
2020,04,13,08,30,7.80
2020,04,13,08,31,7.90
2020,04,13,08,32,7.90
2020,04,13,08,33,8.00
2020,04,13,08,34,8.00
2020,04,13,08,35,8.10
2020,04,13,08,36,8.10
2020,04,13,08,37,8.20
2020,04,13,08,38,8.30
2020,04,13,08,39,8.30
2020,04,13,08,40,8.40
2020,04,13,08,41,8.50
2020,04,13,08,42,8.60
2020,04,13,08,43,8.70
2020,04,13,08,44,8.80
2020,04,13,08,45,8.80
2020,04,13,08,46,8.90
2020,04,13,08,47,9.00
2020,04,13,08,48,9.10
2020,04,13,08,49,9.10
2020,04,13,08,50,9.20
2020,04,13,08,51,9.20
2020,04,13,08,52,9.30
2020,04,13,08,53,9.30
2020,04,13,08,54,9.30
2020,04,13,08,55,9.40
2020,04,13,08,56,9.40
2020,04,13,08,57,9.50
2020,04,13,08,58,9.60
2020,04,13,08,59,9.60
2020,04,13,09,00,9.70
2020,04,13,09,01,9.80
2020,04,13,09,02,9.80
2020,04,13,09,03,9.90
2020,04,13,09,04,9.90
2020,04,13,09,05,10.00
2020,04,13,09,06,10.00
2020,04,13,09,07,10.10
2020,04,13,09,08,10.10
2020,04,13,09,09,10.20
2020,04,13,09,10,10.20
2020,04,13,09,11,10.30
2020,04,13,09,12,10.30
2020,04,13,09,13,10.40
2020,04,13,09,14,10.40
2020,04,13,09,15,10.50
2020,04,13,09,16,10.50
2020,04,13,09,17,10.60
2020,04,13,09,18,10.60
2020,04,13,09,19,10.60
2020,04,13,09,20,10.70
2020,04,13,09,21,10.70
2020,04,13,09,22,10.70
2020,04,13,09,23,10.80
2020,04,13,09,24,10.80
2020,04,13,09,25,10.80
2020,04,13,09,26,10.90
2020,04,13,09,27,10.90
2020,04,13,09,28,10.90
2020,04,13,09,29,10.90
2020,04,13,09,30,11.00
2020,04,13,09,31,11.00
2020,04,13,09,32,11.10
2020,04,13,09,33,11.10
2020,04,13,09,34,11.20
2020,04,13,09,35,11.20
2020,04,13,09,36,11.30
2020,04,13,09,37,11.30
2020,04,13,09,38,11.30
2020,04,13,09,39,11.40
2020,04,13,09,40,11.40
2020,04,13,09,41,11.50
2020,04,13,09,42,11.50
2020,04,13,09,43,11.60
2020,04,13,09,44,11.70
2020,04,13,09,45,11.70
2020,04,13,09,46,11.70
2020,04,13,09,47,11.80
2020,04,13,09,48,11.80
2020,04,13,09,49,11.90
2020,04,13,09,50,11.90
2020,04,13,09,51,12.00
2020,04,13,09,52,12.00
2020,04,13,09,53,12.10
2020,04,13,09,54,12.10
2020,04,13,09,55,12.10
2020,04,13,09,56,12.20
2020,04,13,09,57,12.30
2020,04,13,09,58,12.30
2020,04,13,09,59,12.40
2020,04,13,10,00,12.40
2020,04,13,10,01,12.40
2020,04,13,10,02,12.50
2020,04,13,10,03,12.50
2020,04,13,10,04,12.60
2020,04,13,10,05,12.60
2020,04,13,10,06,12.70
2020,04,13,10,07,12.70
2020,04,13,10,08,12.70
2020,04,13,10,09,12.80
2020,04,13,10,10,12.80
2020,04,13,10,11,12.90
2020,04,13,10,12,12.90
2020,04,13,10,13,12.90
2020,04,13,10,14,12.90
2020,04,13,10,15,12.90
2020,04,13,10,16,12.90
2020,04,13,10,17,12.90
2020,04,13,10,18,12.90
2020,04,13,10,19,13.00
2020,04,13,10,20,13.00
2020,04,13,10,21,13.10
2020,04,13,10,22,13.20
2020,04,13,10,23,13.30
2020,04,13,10,24,13.30
2020,04,13,10,25,13.30
2020,04,13,10,26,13.30
2020,04,13,10,27,13.30
2020,04,13,10,28,13.40
2020,04,13,10,29,13.40
2020,04,13,10,30,13.40
2020,04,13,10,31,13.50
2020,04,13,10,32,13.50
2020,04,13,10,33,13.50
2020,04,13,10,34,13.60
2020,04,13,10,35,13.60
2020,04,13,10,36,13.70
2020,04,13,10,37,13.70
2020,04,13,10,38,13.70
2020,04,13,10,39,13.80
2020,04,13,10,40,13.80
2020,04,13,10,41,13.80
2020,04,13,10,42,13.80
2020,04,13,10,43,13.90
2020,04,13,10,44,13.90
2020,04,13,10,45,14.00
2020,04,13,10,46,14.00
2020,04,13,10,47,14.10
2020,04,13,10,48,14.10
2020,04,13,10,49,14.20
2020,04,13,10,50,14.20
2020,04,13,10,51,14.20
2020,04,13,10,52,14.30
2020,04,13,10,53,14.30
2020,04,13,10,54,14.30
2020,04,13,10,55,14.30
2020,04,13,10,56,14.30
2020,04,13,10,57,14.40
2020,04,13,10,58,14.40
2020,04,13,10,59,14.50
2020,04,13,11,00,14.60
2020,04,13,11,01,14.60
2020,04,13,11,02,14.60
2020,04,13,11,03,14.70
2020,04,13,11,04,14.70
2020,04,13,11,05,14.80
2020,04,13,11,06,14.80
2020,04,13,11,07,14.80
2020,04,13,11,08,14.80
2020,04,13,11,09,14.90
2020,04,13,11,10,14.90
2020,04,13,11,11,14.90
2020,04,13,11,12,14.90
2020,04,13,11,13,14.90
2020,04,13,11,14,14.90
2020,04,13,11,15,14.90
2020,04,13,11,16,14.90
2020,04,13,11,17,14.90
2020,04,13,11,18,14.80
2020,04,13,11,19,14.80
2020,04,13,11,20,14.70
2020,04,13,11,21,14.80
2020,04,13,11,22,14.80
2020,04,13,11,23,14.90
2020,04,13,11,24,15.00
2020,04,13,11,25,15.00
2020,04,13,11,26,15.10
2020,04,13,11,27,15.20
2020,04,13,11,28,15.20
2020,04,13,11,29,15.30
2020,04,13,11,30,15.20
2020,04,13,11,31,15.10
2020,04,13,11,32,15.10
2020,04,13,11,33,15.00
2020,04,13,11,34,14.90
2020,04,13,11,35,14.90
2020,04,13,11,36,14.80
2020,04,13,11,37,14.80
2020,04,13,11,38,14.80
2020,04,13,11,39,14.70
2020,04,13,11,40,14.70
2020,04,13,11,41,14.60
2020,04,13,11,42,14.60
2020,04,13,11,43,14.50
2020,04,13,11,44,14.40
2020,04,13,11,45,14.40
2020,04,13,11,46,14.40
2020,04,13,11,47,14.40
2020,04,13,11,48,14.30
2020,04,13,11,49,14.30
2020,04,13,11,50,14.30
2020,04,13,11,51,14.40
2020,04,13,11,52,14.40
2020,04,13,11,53,14.50
2020,04,13,11,54,14.60
2020,04,13,11,55,14.60
2020,04,13,11,56,14.60
2020,04,13,11,57,14.60
2020,04,13,11,58,14.70
2020,04,13,11,59,14.70
2020,04,13,12,00,14.70
2020,04,13,12,01,14.70
2020,04,13,12,02,14.80
2020,04,13,12,03,14.80
2020,04,13,12,04,14.80
2020,04,13,12,05,14.90
2020,04,13,12,06,14.90
2020,04,13,12,07,14.80
2020,04,13,12,08,14.80
2020,04,13,12,09,14.80
2020,04,13,12,10,14.80
2020,04,13,12,11,14.80
2020,04,13,12,12,14.80
2020,04,13,12,13,14.80
2020,04,13,12,14,14.70
2020,04,13,12,15,14.70
2020,04,13,12,16,14.70
2020,04,13,12,17,14.60
2020,04,13,12,18,14.60
2020,04,13,12,19,14.50
2020,04,13,12,20,14.40
2020,04,13,12,21,14.40
2020,04,13,12,22,14.40
2020,04,13,12,23,14.40
2020,04,13,12,24,14.40
2020,04,13,12,25,14.50
2020,04,13,12,26,14.50
2020,04,13,12,27,14.50
2020,04,13,12,28,14.50
2020,04,13,12,29,14.50
2020,04,13,12,30,14.60
2020,04,13,12,31,14.60
2020,04,13,12,32,14.60
2020,04,13,12,33,14.60
2020,04,13,12,34,14.60
2020,04,13,12,35,14.60
2020,04,13,12,36,14.70
2020,04,13,12,37,14.70
2020,04,13,12,38,14.80
2020,04,13,12,39,14.80
2020,04,13,12,40,14.80
2020,04,13,12,41,14.90
2020,04,13,12,42,14.90
2020,04,13,12,43,14.80
2020,04,13,12,44,14.90
2020,04,13,12,45,14.90
2020,04,13,12,46,14.90
2020,04,13,12,47,14.90
2020,04,13,12,48,14.90
2020,04,13,12,49,14.90
2020,04,13,12,50,15.00
2020,04,13,12,51,15.00
2020,04,13,12,52,15.00
2020,04,13,12,53,15.00
2020,04,13,12,54,15.00
2020,04,13,12,55,14.90
2020,04,13,12,56,14.80
2020,04,13,12,57,14.80
2020,04,13,12,58,14.80
2020,04,13,12,59,14.90
2020,04,13,13,00,14.90
2020,04,13,13,01,15.00
2020,04,13,13,02,15.00
2020,04,13,13,03,15.00
2020,04,13,13,04,15.10
2020,04,13,13,05,15.20
2020,04,13,13,06,15.20
2020,04,13,13,07,15.20
2020,04,13,13,08,15.10
2020,04,13,13,09,15.10
2020,04,13,13,10,15.10
2020,04,13,13,11,15.20
2020,04,13,13,12,15.20
2020,04,13,13,13,15.20
2020,04,13,13,14,15.30
2020,04,13,13,15,15.30
2020,04,13,13,16,15.30
2020,04,13,13,17,15.30
2020,04,13,13,18,15.30
2020,04,13,13,19,15.20
2020,04,13,13,20,15.20
2020,04,13,13,21,15.20
2020,04,13,13,22,15.30
2020,04,13,13,23,15.30
2020,04,13,13,24,15.40
2020,04,13,13,25,15.50
2020,04,13,13,26,15.50
2020,04,13,13,27,15.60
2020,04,13,13,28,15.60
2020,04,13,13,29,15.70
2020,04,13,13,30,15.80
2020,04,13,13,31,15.90
2020,04,13,13,32,16.10
2020,04,13,13,33,16.10
2020,04,13,13,34,16.20
2020,04,13,13,35,16.10
2020,04,13,13,36,16.00
2020,04,13,13,37,15.90
2020,04,13,13,38,15.90
2020,04,13,13,39,15.90
2020,04,13,13,40,15.90
2020,04,13,13,41,15.90
2020,04,13,13,42,15.90
2020,04,13,13,43,16.00
2020,04,13,13,44,16.00
2020,04,13,13,45,16.00
2020,04,13,13,46,16.10
2020,04,13,13,47,16.10
2020,04,13,13,48,16.10
2020,04,13,13,49,16.20
2020,04,13,13,50,16.10
2020,04,13,13,51,16.10
2020,04,13,13,52,16.10
2020,04,13,13,53,16.10
2020,04,13,13,54,16.10
2020,04,13,13,55,16.10
2020,04,13,13,56,16.00
2020,04,13,13,57,15.80
2020,04,13,13,58,15.80
2020,04,13,13,59,15.80
2020,04,13,14,00,15.80
2020,04,13,14,01,15.70
2020,04,13,14,02,15.70
2020,04,13,14,03,15.70
2020,04,13,14,04,15.70
2020,04,13,14,05,15.70
2020,04,13,14,06,15.70
2020,04,13,14,07,15.60
2020,04,13,14,08,15.70
2020,04,13,14,09,15.70
2020,04,13,14,10,15.70
2020,04,13,14,11,15.80
2020,04,13,14,12,15.90
2020,04,13,14,13,15.90
2020,04,13,14,14,16.00
2020,04,13,14,15,16.10
2020,04,13,14,16,16.10
2020,04,13,14,17,16.10
2020,04,13,14,18,16.10
2020,04,13,14,19,16.10
2020,04,13,14,20,16.10
2020,04,13,14,21,16.00
2020,04,13,14,22,16.00
2020,04,13,14,23,15.90
2020,04,13,14,24,15.90
2020,04,13,14,25,15.80
2020,04,13,14,26,15.80
2020,04,13,14,27,15.80
2020,04,13,14,28,15.80
2020,04,13,14,29,15.80
2020,04,13,14,30,15.80
2020,04,13,14,31,15.90
2020,04,13,14,32,15.90
2020,04,13,14,33,15.90
2020,04,13,14,34,15.80
2020,04,13,14,35,15.80
2020,04,13,14,36,15.80
2020,04,13,14,37,15.80
2020,04,13,14,38,15.80
2020,04,13,14,39,15.80
2020,04,13,14,40,15.90
2020,04,13,14,41,15.90
2020,04,13,14,42,16.00
2020,04,13,14,43,16.10
2020,04,13,14,44,16.10
2020,04,13,14,45,16.10
2020,04,13,14,46,16.10
2020,04,13,14,47,16.00
2020,04,13,14,48,16.00
2020,04,13,14,49,16.00
2020,04,13,14,50,16.00
2020,04,13,14,51,16.10
2020,04,13,14,52,16.10
2020,04,13,14,53,16.20
2020,04,13,14,54,16.20
2020,04,13,14,55,16.30
2020,04,13,14,56,16.30
2020,04,13,14,57,16.40
2020,04,13,14,58,16.40
2020,04,13,14,59,16.40
2020,04,13,15,00,16.50
2020,04,13,15,01,16.60
2020,04,13,15,02,16.60
2020,04,13,15,03,16.70
2020,04,13,15,04,16.70
2020,04,13,15,05,16.80
2020,04,13,15,06,16.80
2020,04,13,15,07,16.80
2020,04,13,15,08,16.80
2020,04,13,15,09,16.90
2020,04,13,15,10,16.90
2020,04,13,15,11,16.90
2020,04,13,15,12,16.90
2020,04,13,15,13,16.90
2020,04,13,15,14,16.90
2020,04,13,15,15,16.90
2020,04,13,15,16,16.80
2020,04,13,15,17,16.80
2020,04,13,15,18,16.70
2020,04,13,15,19,16.60
2020,04,13,15,20,16.60
2020,04,13,15,21,16.60
2020,04,13,15,22,16.60
2020,04,13,15,23,16.50
2020,04,13,15,24,16.50
2020,04,13,15,25,16.50
2020,04,13,15,26,16.60
2020,04,13,15,27,16.60
2020,04,13,15,28,16.60
2020,04,13,15,29,16.60
2020,04,13,15,30,16.60
2020,04,13,15,31,16.60
2020,04,13,15,32,16.60
2020,04,13,15,33,16.60
2020,04,13,15,34,16.60
2020,04,13,15,35,16.60
2020,04,13,15,36,16.60
2020,04,13,15,37,16.60
2020,04,13,15,38,16.60
2020,04,13,15,39,16.60
2020,04,13,15,40,16.60
2020,04,13,15,41,16.60
2020,04,13,15,42,16.60
2020,04,13,15,43,16.60
2020,04,13,15,44,16.60
2020,04,13,15,45,16.60
2020,04,13,15,46,16.60
2020,04,13,15,47,16.50
2020,04,13,15,48,16.50
2020,04,13,15,49,16.40
2020,04,13,15,50,16.40
2020,04,13,15,51,16.30
2020,04,13,15,52,16.30
2020,04,13,15,53,16.30
2020,04,13,15,54,16.30
2020,04,13,15,55,16.30
2020,04,13,15,56,16.30
2020,04,13,15,57,16.30
2020,04,13,15,58,16.30
2020,04,13,15,59,16.30
2020,04,13,16,00,16.30
2020,04,13,16,01,16.30
2020,04,13,16,02,16.30
2020,04,13,16,03,16.30
2020,04,13,16,04,16.30
2020,04,13,16,05,16.30
2020,04,13,16,06,16.30
2020,04,13,16,07,16.30
2020,04,13,16,08,16.30
2020,04,13,16,09,16.30
2020,04,13,16,10,16.30
2020,04,13,16,11,16.30
2020,04,13,16,12,16.30
2020,04,13,16,13,16.30
2020,04,13,16,14,16.30
2020,04,13,16,15,16.30
2020,04,13,16,16,16.40
2020,04,13,16,17,16.40
2020,04,13,16,18,16.40
2020,04,13,16,19,16.50
2020,04,13,16,20,16.50
2020,04,13,16,21,16.60
2020,04,13,16,22,16.60
2020,04,13,16,23,16.70
2020,04,13,16,24,16.70
2020,04,13,16,25,16.70
2020,04,13,16,26,16.80
2020,04,13,16,27,16.80
2020,04,13,16,28,16.80
2020,04,13,16,29,16.80
2020,04,13,16,30,16.90
2020,04,13,16,31,16.90
2020,04,13,16,32,16.90
2020,04,13,16,33,17.00
2020,04,13,16,34,17.00
2020,04,13,16,35,17.00
2020,04,13,16,36,17.10
2020,04,13,16,37,17.10
2020,04,13,16,38,17.10
2020,04,13,16,39,17.10
2020,04,13,16,40,17.00
2020,04,13,16,41,17.00
2020,04,13,16,42,16.90
2020,04,13,16,43,16.80
2020,04,13,16,44,16.80
2020,04,13,16,45,16.70
2020,04,13,16,46,16.70
2020,04,13,16,47,16.70
2020,04,13,16,48,16.70
2020,04,13,16,49,16.70
2020,04,13,16,50,16.70
2020,04,13,16,51,16.70
2020,04,13,16,52,16.70
2020,04,13,16,53,16.70
2020,04,13,16,54,16.80
2020,04,13,16,55,16.80
2020,04,13,16,56,16.80
2020,04,13,16,57,16.80
2020,04,13,16,58,16.80
2020,04,13,16,59,16.80
2020,04,13,17,00,16.80
2020,04,13,17,01,16.80
2020,04,13,17,02,16.80
2020,04,13,17,03,16.80
2020,04,13,17,04,16.70
2020,04,13,17,05,16.70
2020,04,13,17,06,16.60
2020,04,13,17,07,16.60
2020,04,13,17,08,16.50
2020,04,13,17,09,16.50
2020,04,13,17,10,16.50
2020,04,13,17,11,16.40
2020,04,13,17,12,16.40
2020,04,13,17,13,16.40
2020,04,13,17,14,16.30
2020,04,13,17,15,16.30
2020,04,13,17,16,16.30
2020,04,13,17,17,16.30
2020,04,13,17,18,16.20
2020,04,13,17,19,16.20
2020,04,13,17,20,16.10
2020,04,13,17,21,16.10
2020,04,13,17,22,16.10
2020,04,13,17,23,16.10
2020,04,13,17,24,16.10
2020,04,13,17,25,16.10
2020,04,13,17,26,16.10
2020,04,13,17,27,16.10
2020,04,13,17,28,16.10
2020,04,13,17,29,16.10
2020,04,13,17,30,16.10
2020,04,13,17,31,16.10
2020,04,13,17,32,16.20
2020,04,13,17,33,16.20
2020,04,13,17,34,16.20
2020,04,13,17,35,16.30
2020,04,13,17,36,16.30
2020,04,13,17,37,16.30
2020,04,13,17,38,16.30
2020,04,13,17,39,16.40
2020,04,13,17,40,16.40
2020,04,13,17,41,16.40
2020,04,13,17,42,16.40
2020,04,13,17,43,16.40